TimeEST,TemperatureF,Dew PointF,Humidity,Sea Level PressureIn,VisibilityMPH,Wind Direction,Wind SpeedMPH,Gust SpeedMPH,PrecipitationIn,Events,Conditions,WindDirDegrees,DateUTC
12:15 AM,61.7,49.6,65,30.38,10.0,North,4.6,-,N/A,,Overcast,10,2012-11-12 05:15:00
12:35 AM,62.1,50.2,65,30.37,10.0,South,9.2,-,N/A,,Overcast,170,2012-11-12 05:35:00
12:55 AM,61.9,50.5,66,30.37,10.0,SSE,4.6,17.3,N/A,,Overcast,160,2012-11-12 05:55:00
1:15 AM,61.7,50.7,67,30.37,10.0,SSW,3.5,-,N/A,,Overcast,200,2012-11-12 06:15:00
1:55 AM,61.7,51.3,69,30.36,10.0,WNW,3.5,-,N/A,,Overcast,300,2012-11-12 06:55:00
2:15 AM,61.7,51.8,70,30.36,10.0,SW,6.9,-,N/A,,Overcast,230,2012-11-12 07:15:00
2:35 AM,61.7,51.8,70,30.35,10.0,NW,6.9,-,N/A,,Overcast,320,2012-11-12 07:35:00
2:55 AM,61.7,51.8,70,30.36,10.0,SW,9.2,-,N/A,,Overcast,220,2012-11-12 07:55:00
3:15 AM,61.7,51.8,70,30.36,10.0,East,3.5,-,N/A,,Overcast,80,2012-11-12 08:15:00
3:35 AM,61.9,51.3,68,30.36,10.0,Calm,Calm,-,N/A,,Overcast,0,2012-11-12 08:35:00
3:55 AM,61.7,51.1,68,30.35,10.0,South,6.9,16.1,N/A,,Overcast,180,2012-11-12 08:55:00
4:15 AM,61.7,51.6,69,30.34,10.0,South,5.8,-,N/A,,Overcast,170,2012-11-12 09:15:00
4:35 AM,61.9,51.8,69,30.34,10.0,NNE,6.9,-,N/A,,Overcast,30,2012-11-12 09:35:00
4:55 AM,61.9,51.8,69,30.33,10.0,SSE,6.9,-,N/A,,Overcast,150,2012-11-12 09:55:00
5:15 AM,61.2,53.1,75,30.33,10.0,SE,5.8,16.1,N/A,Rain,Rain,130,2012-11-12 10:15:00
5:35 AM,60.8,53.6,77,30.33,10.0,Calm,Calm,-,N/A,,Overcast,0,2012-11-12 10:35:00
5:55 AM,61.0,52.5,74,30.32,10.0,North,4.6,-,N/A,,Overcast,10,2012-11-12 10:55:00
6:15 AM,61.5,51.1,69,30.32,10.0,SE,3.5,-,N/A,,Overcast,140,2012-11-12 11:15:00
6:35 AM,61.3,50.4,67,30.33,10.0,SSE,5.8,-,N/A,,Overcast,160,2012-11-12 11:35:00
6:55 AM,61.5,50.5,67,30.33,10.0,Calm,Calm,-,N/A,,Overcast,0,2012-11-12 11:55:00
7:15 AM,61.7,50.2,66,30.33,10.0,South,3.5,-,N/A,,Overcast,180,2012-11-12 12:15:00
7:55 AM,61.7,50.9,68,30.33,10.0,South,15.0,24.2,N/A,,Overcast,180,2012-11-12 12:55:00
8:15 AM,61.9,50.2,65,30.34,10.0,South,8.1,31.1,N/A,,Overcast,170,2012-11-12 13:15:00
8:35 AM,61.7,50.4,66,30.34,10.0,SE,8.1,-,N/A,,Overcast,140,2012-11-12 13:35:00
8:55 AM,61.7,51.3,69,30.35,10.0,South,6.9,20.7,N/A,,Overcast,190,2012-11-12 13:55:00
9:15 AM,61.7,51.3,69,30.34,10.0,West,10.4,-,N/A,,Overcast,260,2012-11-12 14:15:00
9:35 AM,63.1,51.4,66,30.35,10.0,South,5.8,-,N/A,,Overcast,190,2012-11-12 14:35:00
9:55 AM,63.5,50.9,63,30.35,10.0,Calm,Calm,-,N/A,,Overcast,0,2012-11-12 14:55:00
10:15 AM,65.8,50.5,58,30.35,10.0,Calm,Calm,-,N/A,,Overcast,0,2012-11-12 15:15:00
10:55 AM,64.6,50.2,60,30.33,10.0,South,4.6,-,N/A,,Overcast,180,2012-11-12 15:55:00
11:15 AM,65.8,51.1,59,30.32,10.0,South,6.9,-,N/A,,Overcast,190,2012-11-12 16:15:00
11:35 AM,65.3,50.4,58,30.31,10.0,SSE,4.6,16.1,N/A,,Overcast,160,2012-11-12 16:35:00
11:55 AM,66.0,50.0,56,30.28,10.0,SSW,6.9,-,N/A,,Overcast,210,2012-11-12 16:55:00
12:15 PM,65.3,50.5,59,30.27,10.0,Calm,Calm,-,N/A,,Overcast,0,2012-11-12 17:15:00
12:35 PM,65.5,50.0,57,30.26,10.0,South,5.8,-,N/A,,Overcast,180,2012-11-12 17:35:00
12:55 PM,64.8,50.0,59,30.25,10.0,SSW,11.5,-,N/A,,Overcast,210,2012-11-12 17:55:00
1:15 PM,64.8,50.2,59,30.23,10.0,South,13.8,25.3,N/A,,Overcast,180,2012-11-12 18:15:00
1:35 PM,64.6,51.1,62,30.23,10.0,South,6.9,-,N/A,,Overcast,170,2012-11-12 18:35:00
1:55 PM,64.8,51.4,62,30.22,10.0,South,5.8,18.4,N/A,,Mostly Cloudy,190,2012-11-12 18:55:00
2:15 PM,64.9,52.5,64,30.22,10.0,SSW,4.6,16.1,N/A,,Scattered Clouds,200,2012-11-12 19:15:00
2:35 PM,65.3,52.0,62,30.21,10.0,South,12.7,19.6,N/A,,Scattered Clouds,180,2012-11-12 19:35:00
2:55 PM,65.3,52.3,63,30.20,10.0,South,13.8,21.9,N/A,,Clear,170,2012-11-12 19:55:00
3:15 PM,65.5,52.2,62,30.19,10.0,SSE,4.6,18.4,N/A,,Scattered Clouds,160,2012-11-12 20:15:00
3:35 PM,65.3,52.2,62,30.20,10.0,South,8.1,-,N/A,,Scattered Clouds,180,2012-11-12 20:35:00
3:55 PM,64.9,52.2,63,30.19,10.0,South,3.5,17.3,N/A,,Mostly Cloudy,170,2012-11-12 20:55:00
4:15 PM,64.8,51.8,63,30.20,10.0,South,8.1,18.4,N/A,,Mostly Cloudy,180,2012-11-12 21:15:00
4:35 PM,63.7,52.9,68,30.21,10.0,SSW,5.8,16.1,N/A,Rain,Light Rain,210,2012-11-12 21:35:00
4:55 PM,62.8,53.6,72,30.22,10.0,SSW,10.4,-,N/A,Rain,Light Rain,200,2012-11-12 21:55:00
5:15 PM,62.8,53.6,72,30.22,10.0,SSW,5.8,-,N/A,Rain,Rain,200,2012-11-12 22:15:00
5:35 PM,61.7,54.5,77,30.22,10.0,South,6.9,-,0.02,Rain,Light Rain,190,2012-11-12 22:35:00
5:55 PM,61.0,54.7,80,30.21,10.0,West,5.8,-,0.03,Rain,Light Rain,270,2012-11-12 22:55:00
6:15 PM,59.5,55.6,87,30.21,10.0,Calm,Calm,-,0.01,Rain,Light Rain,0,2012-11-12 23:15:00
6:35 PM,59.2,55.8,88,30.21,10.0,WNW,3.5,-,0.02,Rain,Light Rain,290,2012-11-12 23:35:00
6:55 PM,58.5,56.3,93,30.23,7.0,West,4.6,-,0.03,Rain,Rain,260,2012-11-12 23:55:00
7:15 PM,58.3,56.3,93,30.22,10.0,WSW,4.6,-,0.01,,Light Drizzle,250,2012-11-13 00:15:00
7:35 PM,58.3,56.7,94,30.22,7.0,SW,4.6,-,0.03,Rain,Rain,230,2012-11-13 00:35:00
7:55 PM,56.8,54.1,91,30.22,5.0,NW,9.2,-,0.05,Rain,Rain,320,2012-11-13 00:55:00
8:15 PM,54.1,51.4,91,30.22,7.0,WNW,12.7,18.4,0.03,Rain,Light Rain,300,2012-11-13 01:15:00
8:35 PM,51.6,48.2,88,30.24,5.0,West,10.4,20.7,0.05,Rain,Rain,280,2012-11-13 01:35:00
8:55 PM,49.8,45.9,86,30.25,7.0,West,16.1,23.0,0.05,,Drizzle,270,2012-11-13 01:55:00
9:15 PM,49.3,46.0,89,30.28,7.0,West,9.2,21.9,N/A,,Light Drizzle,260,2012-11-13 02:15:00
9:35 PM,48.7,45.7,89,30.28,7.0,West,10.4,19.6,N/A,,Drizzle,280,2012-11-13 02:35:00
9:55 PM,46.9,43.9,89,30.28,10.0,West,8.1,17.3,0.01,,Overcast,280,2012-11-13 02:55:00
10:15 PM,46.2,43.3,90,30.30,10.0,West,11.5,16.1,N/A,,Overcast,270,2012-11-13 03:15:00
10:35 PM,45.5,42.3,88,30.31,10.0,West,13.8,18.4,N/A,Rain,Rain,280,2012-11-13 03:35:00
10:55 PM,45.0,41.9,89,30.30,10.0,WNW,9.2,18.4,0.01,Rain,Light Rain,290,2012-11-13 03:55:00
11:15 PM,44.6,41.2,88,30.31,10.0,West,11.5,-,N/A,,Overcast,280,2012-11-13 04:15:00
11:35 PM,44.6,41.0,87,30.31,10.0,West,9.2,-,N/A,,Overcast,260,2012-11-13 04:35:00
11:55 PM,43.5,40.3,88,30.31,10.0,West,9.2,-,0.02,Rain,Light Rain,270,2012-11-13 04:55:00